Regional Weather Roundup
Issued by NWS Cleveland, OH

Home | Current Version | Previous Version | Graphics & Text | Print | Product List | Glossary On
Versions: 1 2 3 4 5 6 7 8 9 10 11 12 13 14 15 16 17 18 19 20 21 22 23 24 25 26 27 28 29 30 31 32 33 34 35 36 37 38 39 40 41 42 43 44 45 46 47 48 49 50
000
ASUS41 KCLE 300700
RWRCLE
OHIO REGIONAL WEATHER ROUNDUP
NATIONAL WEATHER SERVICE WILMINGTON, OH
300 AM EDT THU MAR 30 2017

NOTE: "FAIR" INDICATES FEW OR NO CLOUDS BELOW 12,000 FEET WITH NO
SIGNIFICANT WEATHER AND/OR OBSTRUCTIONS TO VISIBILITY.

OHZ001>008-015>018-024>027-034-035-043-044-300800-
   NORTHWEST OHIO

CITY           SKY/WX    TMP DP  RH WIND       PRES   REMARKS
DEFIANCE       LGT RAIN  42  34  73 NE13      30.07F
FINDLAY        CLOUDY    46  32  58 NE14      30.05F
TOLEDO EXPRESS CLOUDY    43  33  68 NE13      30.13R
TOLEDO EXEC    CLOUDY    43  35  73 NE13G21   30.11F
LIMA           LGT RAIN  45  35  68 E18       30.02F
$$

OHZ009>014-019>023-028>033-038-089-300800-
   NORTHEAST OHIO

CITY           SKY/WX    TMP DP  RH WIND       PRES   REMARKS
CLE-HOPKINS    CLOUDY    46  33  60 N8        30.15F
CLE-LAKEFRONT  CLOUDY    42  37  82 NE10      30.14S
CUY CO. ARPT   NOT AVBL
LORAIN-ELYRIA  CLOUDY    43  32  65 NE10      30.11F
ASHTABULA      CLOUDY    44  30  57 NE6       30.18R
AKRON-CANTON   MOCLDY    45  30  55 E13       30.09F
WOOSTER        NOT AVBL
MANSFIELD      CLOUDY    44  31  60 E8        30.07S
YOUNGSTOWN     CLOUDY    45  29  53 E9        30.14F
$$

OHZ042-051>053-060>062-070>072-077>081-300800-
  SOUTHWEST OHIO

CITY           SKY/WX    TMP DP  RH WIND       PRES   REMARKS
CINC-COVINGTON MOCLDY    53  44  71 SE10      29.94F
CINC-LUNKEN    FAIR      53  45  74 VRB3      29.96F
HAMILTON       FAIR      51  45  79 E7        29.96F
DAYTON         NOT AVBL
WRIGHT-PAT AFB FAIR      51  36  56 E9        29.97F
DAYTON GENERAL FAIR      50  41  71 E8        29.95F
WILMINGTON     FAIR      47  42  83 E7        29.97F
$$

OHZ036-037-039>041-045>050-054>059-063>069-073>076-082>088-300800-
  CENTRAL AND SOUTHEAST OHIO

CITY           SKY/WX    TMP DP  RH WIND       PRES   REMARKS
COLUMBUS       CLOUDY    50  34  54 E10       30.00F
OSU AIRPORT    CLOUDY    50  35  56 E12       30.00F
BOLTON FIELD   NOT AVBL
RICKENBACK AFB NOT AVBL
NEWARK         CLOUDY    49  32  52 NE7       30.02F
MARION         FAIR      46  33  60 E12       30.04F
LANCASTER      FAIR      49  36  61 E3        30.01F
ZANESVILLE     MOCLDY    49  32  52 NE7       30.03F
NEW PHILLY     FAIR      47  32  56 E7        30.08F
$$




USA.gov is the U.S. government's official web portal to all federal, state and local government web resources and services.